Location: Gorze? G�rny
(49.8500°N, 19.5000°E)
Time: 05:29:56
(UTC+00:00)

Okean 3 - Pass Details

Date: 13 May 2021
Orbit: 575 x 601 km, 82.5° (Epoch: 20 June)

Event Time Altitude Azimuth Distance (km) Brightness Sun altitude
Exits shadow 22:29:19 64° 144° (SE) 660 3.4 -21.5°
Maximum altitude 22:29:48 71° 98° (E) 628 3.4 -21.5°
Drops below altitude 10° 22:34:02 10° 14° (NNE) 1,924 7.2 -21.5°
Sets 22:36:14 0° 12° (NNE) 2,825 8.4 -21.5°
